DW2715 Weather Reports


Display with metric or nautical units.
time (UTC)temp
F
wind
direction
speed
MPH
gust
MPH
rain 1hr
in
rain 24hr
in
rain mn
in
humidity
%
barometer
mb
20260904143801 89 240 3.0 10.0 0.00 0.00 0.00 50 1017.0
20260904142801 89 92 4.0 12.0 0.00 0.00 0.00 50 1017.1
20260904142305 89 137 4.0 11.0 0.00 0.00 0.00 52 1017.2
20260904141801 89 107 3.0 12.0 0.00 0.00 0.00 53 1017.2
20260904141300 89 90 3.0 12.0 0.00 0.00 0.00 53 1017.2
20260904140802 89 112 3.0 12.0 0.00 0.00 0.00 55 1017.3
20260904140301 89 111 4.0 14.0 0.00 0.00 0.00 55 1017.5
20260904135801 89 72 4.0 14.0 0.00 0.00 0.00 53 1017.5
20260904135301 89 126 2.0 12.0 0.00 0.00 0.00 50 1017.6
20260904134800 90 130 3.0 12.0 0.00 0.00 0.00 51 1017.6
20260904134301 89 98 4.0 12.0 0.00 0.00 0.00 52 1017.6
20260904133801 89 131 4.0 12.0 0.00 0.00 0.00 54 1017.6
20260904133301 89 106 4.0 11.0 0.00 0.00 0.00 54 1017.7
20260904132800 90 103 2.0 11.0 0.00 0.00 0.00 53 1017.7
20260904132301 90 186 2.0 11.0 0.00 0.00 0.00 55 1017.7
20260904131301 90 119 3.0 11.0 0.00 0.00 0.00 55 1017.8
20260904130801 90 123 2.0 11.0 0.00 0.00 0.00 55 1017.9
20260904130301 90 118 2.0 9.0 0.00 0.00 0.00 54 1017.8
20260904125801 90 265 2.0 11.0 0.00 0.00 0.00 54 1017.9
20260904125301 91 80 2.0 11.0 0.00 0.00 0.00 52 1018.0
20260904124801 92 99 1.0 9.0 0.00 0.00 0.00 50 1018.1
20260904124303 93 117 1.0 6.0 0.00 0.00 0.00 49 1018.1
20260904123800 94 184 1.0 5.0 0.00 0.00 0.00 49 1018.1
20260904123301 94 128 1.0 10.0 0.00 0.00 0.00 46 1018.1
20260904122301 93 190 1.0 8.0 0.00 0.00 0.00 40 1018.2
20260904121801 92 182 0.0 4.0 0.00 0.00 0.00 43 1018.2
20260904121302 92 232 1.0 13.0 0.00 0.00 0.00 42 1018.2
20260904120802 92 233 1.0 13.0 0.00 0.00 0.00 41 1018.2
20260904120301 92 106 0.0 6.0 0.00 0.00 0.00 44 1018.3
20260904115801 91 134 0.0 6.0 0.00 0.00 0.00 45 1018.4
20260904115301 92 297 1.0 7.0 0.00 0.00 0.00 44 1018.3
20260904114801 92 238 1.0 7.0 0.00 0.00 0.00 44 1018.4
20260904114301 91 238 0.0 0.0 0.00 0.00 0.00 46 1018.4
20260904113301 91 115 1.0 5.0 0.00 0.00 0.00 45 1018.6
20260904112803 91 190 1.0 11.0 0.00 0.00 0.00 47 1018.7
20260904112305 90 180 1.0 11.0 0.00 0.00 0.00 47 1018.8
20260904111801 90 253 0.0 9.0 0.00 0.00 0.00 47 1018.8
20260904111303 90 207 0.0 3.0 0.00 0.00 0.00 49 1018.8
20260904105248 89 182 1.0 7.0 0.00 0.00 0.00 51 1018.9
20260904104742 89 161 1.0 7.0 0.00 0.00 0.00 50 1019.0
20260904103742 89 202 0.0 6.0 0.00 0.00 0.00 50 1019.1
20260904103242 88 161 0.0 0.0 0.00 0.00 0.00 50 1019.1
20260904102740 88 179 0.0 0.0 0.00 0.00 0.00 52 1019.1
20260904102239 87 252 0.0 0.0 0.00 0.00 0.00 51 1019.2
20260904101239 87 187 0.0 0.0 0.00 0.00 0.00 52 1019.2
20260904100741 87 217 0.0 0.0 0.00 0.00 0.00 52 1019.2
20260904100237 87 216 0.0 0.0 0.00 0.00 0.00 52 1019.2
20260904095737 87 248 0.0 0.0 0.00 0.00 0.00 52 1019.2
20260904095237 87 115 0.0 0.0 0.00 0.00 0.00 52 1019.2
20260904094738 86 157 0.0 0.0 0.00 0.00 0.00 52 1019.2
20260904094237 86 209 0.0 0.0 0.00 0.00 0.00 52 1019.3
20260904092731 85 173 0.0 4.0 0.00 0.00 0.00 52 1019.5
20260904092232 85 225 0.0 2.0 0.00 0.00 0.00 54 1019.5
20260904091730 85 140 0.0 2.0 0.00 0.00 0.00 56 1019.5
20260904091230 84 178 0.0 0.0 0.00 0.00 0.00 57 1019.5
20260904090724 84 170 0.0 0.0 0.00 0.00 0.00 57 1019.5
20260904085211 83 101 0.0 0.0 0.00 0.00 0.00 58 1019.5
20260904084710 83 154 0.0 0.0 0.00 0.00 0.00 59 1019.5
20260904084207 82 140 0.0 0.0 0.00 0.00 0.00 59 1019.5
20260904083708 82 152 0.0 2.0 0.00 0.00 0.00 58 1019.6
20260904083208 82 155 0.0 2.0 0.00 0.00 0.00 60 1019.6
20260904082706 81 177 0.0 0.0 0.00 0.00 0.00 61 1019.6
20260904082205 81 125 0.0 0.0 0.00 0.00 0.00 61 1019.5
20260904081703 80 23 0.0 0.0 0.00 0.00 0.00 60 1019.5
20260904081202 80 60 0.0 0.0 0.00 0.00 0.00 61 1019.5
20260904075700 78 339 0.0 0.0 0.00 0.00 0.00 62 1019.5
20260904075158 78 339 0.0 0.0 0.00 0.00 0.00 62 1019.5
20260904074658 78 338 0.0 0.0 0.00 0.00 0.00 63 1019.4
20260904074159 77 0 0.0 0.0 0.00 0.00 0.00 64 1019.5
20260904073659 77 0 0.0 0.0 0.00 0.00 0.00 64 1019.4
20260904073158 77 355 0.0 0.0 0.00 0.00 0.00 65 1019.4
20260904072656 76 355 0.0 0.0 0.00 0.00 0.00 65 1019.4
20260904072156 76 355 0.0 0.0 0.00 0.00 0.00 66 1019.3
20260904071656 76 0 0.0 0.0 0.00 0.00 0.00 66 1019.4
20260904070656 75 0 0.0 0.0 0.00 0.00 0.00 67 1019.4
20260904070156 75 31 0.0 0.0 0.00 0.00 0.00 67 1019.4
20260904065657 75 30 0.0 0.0 0.00 0.00 0.00 68 1019.4
20260904065152 74 349 0.0 0.0 0.00 0.00 0.00 69 1019.3
20260904064152 74 0 0.0 0.0 0.00 0.00 0.00 70 1019.3
20260904063652 74 19 0.0 2.0 0.00 0.00 0.00 70 1019.3
20260904062152 73 337 0.0 0.0 0.00 0.00 0.00 73 1019.2
20260904061652 72 337 0.0 0.0 0.00 0.00 0.00 73 1019.2
20260904060655 71 338 0.0 0.0 0.00 0.00 0.00 74 1019.1
20260904060150 71 338 0.0 0.0 0.00 0.00 0.00 75 1019.1
20260904055148 71 319 0.0 0.0 0.00 0.00 0.00 75 1019.1
20260904054648 71 302 0.0 0.0 0.00 0.00 0.00 75 1019.1
20260904054146 71 302 0.0 0.0 0.00 0.00 0.00 75 1019.1
20260904053646 71 319 0.0 0.0 0.00 0.00 0.00 75 1019.1
20260904053146 71 11 0.0 0.0 0.00 0.00 0.00 75 1019.1
20260904052644 71 313 0.0 0.0 0.00 0.00 0.00 75 1019.1
20260904052142 70 312 0.0 1.0 0.00 0.00 0.00 75 1019.0
20260904051641 70 313 0.0 1.0 0.00 0.00 0.00 75 1019.0
20260904051142 70 274 0.0 0.0 0.00 0.00 0.00 75 1018.9
20260904050640 70 274 0.0 0.0 0.00 0.00 0.00 75 1018.9
20260904050138 70 274 0.0 0.0 0.00 0.00 0.00 76 1018.9
20260904045638 70 274 0.0 0.0 0.00 0.00 0.00 76 1018.9
20260904045138 70 274 0.0 0.0 0.00 0.00 0.00 76 1018.9
20260904044636 70 271 0.0 0.0 0.00 0.00 0.00 76 1018.8
20260904043633 70 271 0.0 0.0 0.00 0.00 0.00 76 1018.8
20260904043129 70 271 0.0 0.0 0.00 0.00 0.00 76 1018.8
20260904042623 70 271 0.0 0.0 0.00 0.00 0.00 75 1018.7
20260904042122 70 271 0.0 0.0 0.00 0.00 0.00 75 1018.7
20260904041620 70 271 0.0 0.0 0.00 0.00 0.00 74 1018.6
20260904041118 70 271 0.0 0.0 0.00 0.00 0.00 74 1018.6
20260904040617 71 271 0.0 0.0 0.00 0.00 0.00 74 1018.6
20260904035612 71 322 0.0 0.0 0.00 0.00 0.00 74 1018.7
20260904035110 71 19 0.0 0.0 0.00 0.00 0.00 73 1018.7
20260904034610 71 19 0.0 0.0 0.00 0.00 0.00 73 1018.6
20260904034111 71 19 0.0 0.0 0.00 0.00 0.00 73 1018.6
20260904033611 71 19 0.0 0.0 0.00 0.00 0.00 72 1018.7
20260904032610 71 19 0.0 0.0 0.00 0.00 0.00 72 1018.7
20260904032111 71 19 0.0 0.0 0.00 0.00 0.00 72 1018.7
20260904031608 71 19 0.0 0.0 0.00 0.00 0.00 72 1018.6
20260904031106 71 19 0.0 0.0 0.00 0.00 0.00 72 1018.6
20260904030605 71 19 0.0 0.0 0.00 0.00 0.00 72 1018.6
20260904030103 71 19 0.0 0.0 0.00 0.00 0.00 72 1018.6
20260904025606 71 19 0.0 0.0 0.00 0.00 0.00 72 1018.5
20260904025102 71 19 0.0 0.0 0.00 0.00 0.00 72 1018.5
20260904024603 71 19 0.0 0.0 0.00 0.00 0.00 72 1018.5
20260904024103 71 19 0.0 0.0 0.00 0.00 0.00 71 1018.5
20260904023602 72 19 0.0 0.0 0.00 0.00 0.00 71 1018.5
20260904023103 72 19 0.0 0.0 0.00 0.00 0.00 71 1018.6
20260904022602 72 19 0.0 0.0 0.00 0.00 0.00 70 1018.6
20260904022104 72 131 0.0 0.0 0.00 0.00 0.00 70 1018.6
20260904021602 72 165 0.0 0.0 0.00 0.00 0.00 69 1018.5
20260904021102 72 179 0.0 0.0 0.00 0.00 0.00 69 1018.6
20260904020603 72 179 0.0 0.0 0.00 0.00 0.00 69 1018.6
20260904015602 72 179 0.0 0.0 0.00 0.00 0.00 69 1018.5
20260904014602 72 179 0.0 0.0 0.00 0.00 0.00 69 1018.5
20260904014102 72 179 0.0 0.0 0.00 0.00 0.00 70 1018.5
20260904013105 72 179 0.0 0.0 0.00 0.00 0.00 71 1018.4
20260904012602 72 179 0.0 0.0 0.00 0.00 0.00 72 1018.4
20260904012103 72 179 0.0 0.0 0.00 0.00 0.00 73 1018.4
20260904011602 72 179 0.0 0.0 0.00 0.00 0.00 74 1018.5
20260904011102 72 179 0.0 0.0 0.00 0.00 0.00 74 1018.5
20260904010602 72 179 0.0 0.0 0.00 0.00 0.00 74 1018.5
20260904005602 72 179 0.0 0.0 0.00 0.00 0.00 74 1018.5
20260904005105 72 179 0.0 0.0 0.00 0.00 0.00 74 1018.6
20260904004101 72 179 0.0 0.0 0.00 0.00 0.00 73 1018.5
20260904003600 72 179 0.0 0.0 0.00 0.00 0.00 73 1018.5
20260904003058 72 179 0.0 0.0 0.00 0.00 0.00 73 1018.5
20260904002555 72 179 0.0 0.0 0.00 0.00 0.00 73 1018.5
20260904002055 72 179 0.0 0.0 0.00 0.00 0.00 73 1018.5
20260904000053 73 179 0.0 0.0 0.00 0.00 0.00 71 1018.6
20260903235051 73 179 0.0 0.0 0.00 0.00 0.00 70 1018.6
20260903234552 73 179 0.0 0.0 0.00 0.00 0.00 70 1018.6
20260903234052 73 179 0.0 0.0 0.00 0.00 0.00 70 1018.6
20260903233551 74 179 0.0 0.0 0.00 0.00 0.00 69 1018.6
20260903232550 74 179 0.0 0.0 0.00 0.00 0.00 69 1018.6
20260903232051 74 179 0.0 0.0 0.00 0.00 0.00 68 1018.7
20260903231551 74 179 0.0 0.0 0.00 0.00 0.00 68 1018.7
20260903231051 74 179 0.0 0.0 0.00 0.00 0.00 67 1018.6
20260903230551 74 179 0.0 0.0 0.00 0.00 0.00 67 1018.7
20260903230051 74 179 0.0 0.0 0.00 0.00 0.00 66 1018.7
20260903225551 74 179 0.0 0.0 0.00 0.00 0.00 66 1018.8
20260903224552 75 179 0.0 0.0 0.00 0.00 0.00 66 1018.7
20260903224051 75 179 0.0 0.0 0.00 0.00 0.00 65 1018.6
20260903223550 75 179 0.0 0.0 0.00 0.00 0.00 65 1018.6
20260903223044 75 179 0.0 0.0 0.00 0.00 0.00 65 1018.6
20260903222538 75 180 0.0 0.0 0.00 0.00 0.00 64 1018.6
20260903222031 75 181 0.0 0.0 0.00 0.00 0.00 64 1018.6
20260903221530 75 182 0.0 0.0 0.00 0.00 0.00 64 1018.6
20260903221033 75 182 0.0 0.0 0.00 0.00 0.00 64 1018.5
20260903220032 75 182 0.0 0.0 0.00 0.00 0.00 63 1018.4
20260903215030 76 182 0.0 0.0 0.00 0.00 0.00 62 1018.2
20260903214530 76 182 0.0 0.0 0.00 0.00 0.00 62 1018.1
20260903214031 76 182 0.0 0.0 0.00 0.00 0.00 61 1018.1
20260903213530 76 182 0.0 0.0 0.00 0.00 0.00 61 1018.0
20260903213029 76 182 0.0 0.0 0.00 0.00 0.00 60 1018.1
20260903212531 76 182 0.0 0.0 0.00 0.00 0.00 60 1018.0
20260903212030 76 182 0.0 0.0 0.00 0.00 0.00 60 1018.0
20260903211530 76 182 0.0 0.0 0.00 0.00 0.00 59 1018.0
20260903211030 76 182 0.0 0.0 0.00 0.00 0.00 59 1018.0
20260903210530 76 182 0.0 0.0 0.00 0.00 0.00 59 1018.0
20260903210032 76 182 0.0 0.0 0.00 0.00 0.00 59 1018.0
20260903205530 77 182 0.0 0.0 0.00 0.00 0.00 58 1018.0
20260903205030 77 182 0.0 0.0 0.00 0.00 0.00 58 1018.1
20260903204531 77 182 0.0 0.0 0.00 0.00 0.00 58 1018.1
20260903204030 77 182 0.0 0.0 0.00 0.00 0.00 57 1018.1
20260903203531 77 182 0.0 0.0 0.00 0.00 0.00 57 1018.1
20260903203030 78 182 0.0 0.0 0.00 0.00 0.00 56 1018.0
20260903202530 78 182 0.0 0.0 0.00 0.00 0.00 55 1018.1
20260903202028 78 182 0.0 0.0 0.00 0.00 0.00 55 1018.0
20260903201528 78 182 0.0 0.0 0.00 0.00 0.00 54 1018.0
20260903201023 78 182 0.0 0.0 0.00 0.00 0.00 54 1017.9
20260903200522 78 182 0.0 0.0 0.00 0.00 0.00 53 1017.9
20260903193510 79 181 0.0 0.0 0.00 0.00 0.00 49 1017.8
20260903193008 79 181 0.0 0.0 0.00 0.00 0.00 49 1017.7
20260903192507 80 182 0.0 0.0 0.00 0.00 0.00 49 1017.8
20260903192005 80 181 0.0 0.0 0.00 0.00 0.00 49 1017.8
20260903191504 80 182 0.0 0.0 0.00 0.00 0.00 48 1017.7
20260903191003 80 185 0.0 0.0 0.00 0.00 0.00 48 1017.6
20260903190504 80 185 0.0 0.0 0.00 0.00 0.00 47 1017.6
20260903190003 80 185 0.0 0.0 0.00 0.00 0.00 48 1017.6
20260903185502 81 181 0.0 0.0 0.00 0.00 0.00 48 1017.5
20260903185001 81 180 0.0 0.0 0.00 0.00 0.00 48 1017.5
20260903184455 81 176 0.0 0.0 0.00 0.00 0.00 48 1017.5
20260903183449 81 157 0.0 0.0 0.00 0.00 0.00 48 1017.3
20260903182950 82 163 0.0 0.0 0.00 0.00 0.00 48 1017.5
20260903182449 82 165 0.0 0.0 0.00 0.00 0.00 47 1017.3
20260903181947 82 150 0.0 0.0 0.00 0.00 0.00 48 1017.2
20260903181447 82 161 0.0 0.0 0.00 0.00 0.00 48 1017.2
20260903180944 82 155 0.0 0.0 0.00 0.00 0.00 48 1017.2
20260903175942 83 167 0.0 0.0 0.00 0.00 0.00 48 1017.1
20260903175440 83 145 0.0 0.0 0.00 0.00 0.00 47 1017.1
20260903174938 83 140 0.0 0.0 0.00 0.00 0.00 47 1017.0
20260903173936 84 146 0.0 2.0 0.00 0.00 0.00 46 1017.0
20260903172933 85 159 0.0 2.0 0.00 0.00 0.00 45 1017.1
20260903172434 85 134 0.0 0.0 0.00 0.00 0.00 45 1017.1
20260903171933 85 156 0.0 2.0 0.00 0.00 0.00 45 1017.1
20260903171433 86 146 0.0 2.0 0.00 0.00 0.00 44 1017.1
20260903170934 86 132 0.0 3.0 0.00 0.00 0.00 44 1017.2
20260903170431 86 141 0.0 3.0 0.00 0.00 0.00 43 1017.1
20260903165425 87 211 0.0 3.0 0.00 0.00 0.00 42 1017.1
20260903164923 87 134 0.0 3.0 0.00 0.00 0.00 41 1017.1
20260903163926 87 117 0.0 1.0 0.00 0.00 0.00 41 1017.2
20260903163424 87 119 0.0 0.0 0.00 0.00 0.00 40 1017.2
20260903162924 88 136 0.0 0.0 0.00 0.00 0.00 39 1017.2
20260903162423 89 149 0.0 7.0 0.00 0.00 0.00 38 1017.2
20260903161923 89 123 0.0 7.0 0.00 0.00 0.00 37 1017.1
20260903161426 90 123 0.0 4.0 0.00 0.00 0.00 37 1017.1
20260903160923 91 130 0.0 4.0 0.00 0.00 0.00 36 1017.0
20260903160423 91 138 0.0 5.0 0.00 0.00 0.00 35 1017.0
20260903155923 91 192 0.0 5.0 0.00 0.00 0.00 35 1016.9
20260903155422 91 163 0.0 7.0 0.00 0.00 0.00 36 1017.0
20260903154921 91 222 1.0 7.0 0.00 0.00 0.00 36 1016.8
20260903154419 91 211 1.0 7.0 0.00 0.00 0.00 36 1016.8
20260903153917 91 187 1.0 7.0 0.00 0.00 0.00 35 1016.8
20260903153417 91 172 1.0 10.0 0.00 0.00 0.00 36 1016.8
20260903152919 91 186 1.0 10.0 0.00 0.00 0.00 35 1016.8
20260903152413 92 169 1.0 6.0 0.00 0.00 0.00 35 1016.7
20260903151912 92 166 1.0 7.0 0.00 0.00 0.00 36 1016.8
20260903151411 91 186 1.0 7.0 0.00 0.00 0.00 36 1016.6
20260903150912 92 185 1.0 7.0 0.00 0.00 0.00 35 1016.6
20260903150409 92 174 1.0 7.0 0.00 0.00 0.00 36 1016.7
20260903144910 93 174 1.0 7.0 0.00 0.00 0.00 36 1017.1